Weather History for Franklin, NC

Change the Weather History Date:

Thursday, February 7, 2013

  Actual Average (KTOC) Record (KTOC)
Temperature  
Mean Temperature 36 °F -  
Max Temperature 42 °F 53 °F 56 °F (2014)
Min Temperature 29 °F 31 °F 32 °F (2014)
Degree Days  
Heating Degree Days 30    
Moisture  
Dew Point 34 °F    
Average Humidity 87    
Maximum Humidity 97    
Minimum Humidity 66    
Precipitation  
Precipitation 0.25 in - - ()
Sea Level Pressure  
Sea Level Pressure 30.10 in    
Wind  
Wind Speed 0 mph (North)    
Max Wind Speed 0 mph    
Max Gust Speed -    
Visibility 7 miles    
Events Fog , Rain    
Averages and records for this station are not official NWS values.
T = Trace of Precipitation, MM = Missing Value Source: NWS Daily Summary

Daily Weather History Graph

Daily Weather History Graph

Search for Another Location

Airport:

Trip Planner

Search our weather history database for the weather conditions in past years. The results will help you decide how hot, cold, wet, or windy it might be!

Date:

Astronomy

Feb. 07, 2013 Rise Set
Actual Time 7:27 AM EST 6:08 PM EST
Civil Twilight 7:01 AM EST 6:34 PM EST
Nautical Twilight 6:31 AM EST 7:04 PM EST
Astronomical Twilight 6:01 AM EST 7:34 PM EST
Moon 5:02 AM EST (2/7) 3:34 PM EST (2/7)
Length of Visible Light 11h 33m
Length of Day
10h 40m
Waning Crescent, 9% of the Moon is Illuminated
Feb 7
Waning Crescent
Feb 10
New
Feb 17
First Quarter
Feb 25
Full
Mar 4
Last Quarter

Hourly Weather History & Observations

Time (EST) Temp. Dew Point Humidity Pressure Visibility Wind Dir Wind Speed Gust Speed Precip Events Conditions
12:15 AM 30.7 °F 26.8 °F 85% 30.18 in 10.0 mi Calm Calm - N/A   Clear
12:35 AM 30.4 °F 26.6 °F 86% 30.18 in 10.0 mi Calm Calm - N/A   Clear
12:55 AM 29.8 °F 26.2 °F 86% 30.18 in 10.0 mi Calm Calm - N/A   Clear
1:15 AM 29.8 °F 26.4 °F 87% 30.18 in 10.0 mi Calm Calm - N/A   Clear
1:55 AM 29.1 °F 25.5 °F 86% 30.19 in 10.0 mi Calm Calm - N/A   Clear
2:15 AM 29.1 °F 25.9 °F 88% 30.18 in 10.0 mi Calm Calm - N/A   Clear
2:35 AM 29.8 °F 26.4 °F 87% 30.18 in 10.0 mi Calm Calm - N/A   Clear
2:55 AM 29.7 °F 26.4 °F 88% 30.19 in 10.0 mi Calm Calm - N/A   Clear
3:15 AM 29.3 °F 26.2 °F 88% 30.20 in 10.0 mi Calm Calm - N/A   Clear
3:35 AM 29.3 °F 26.4 °F 89% 30.20 in 10.0 mi Calm Calm - N/A   Clear
3:55 AM 30.0 °F 26.6 °F 87% 30.21 in 10.0 mi Calm Calm - N/A   Clear
4:15 AM 30.6 °F 27.1 °F 87% 30.21 in 10.0 mi Calm Calm - N/A   Clear
4:35 AM 31.1 °F 27.3 °F 86% 30.21 in 10.0 mi Calm Calm - N/A   Clear
4:55 AM 31.5 °F 27.5 °F 85% 30.21 in 10.0 mi Calm Calm - N/A   Clear
5:15 AM 31.8 °F 27.5 °F 84% 30.20 in 10.0 mi Calm Calm - N/A   Scattered Clouds
5:35 AM 32.0 °F 27.5 °F 83% 30.19 in 10.0 mi Calm Calm - N/A   Overcast
5:55 AM 32.0 °F 28.0 °F 85% 30.19 in 10.0 mi Calm Calm - N/A   Overcast
6:15 AM 32.0 °F 28.2 °F 86% 30.18 in 10.0 mi Calm Calm - N/A   Overcast
6:35 AM 32.0 °F 28.4 °F 87% 30.19 in 10.0 mi Calm Calm - N/A   Overcast
6:55 AM 32.4 °F 28.2 °F 85% 30.19 in 10.0 mi Calm Calm - N/A   Overcast
7:15 AM 32.7 °F 28.4 °F 84% 30.19 in 10.0 mi Calm Calm - N/A   Overcast
7:35 AM 32.9 °F 28.9 °F 85% 30.18 in 10.0 mi Calm Calm - N/A   Overcast
7:55 AM 33.3 °F 29.3 °F 85% 30.18 in 10.0 mi Calm Calm - N/A   Overcast
8:15 AM 33.8 °F 28.9 °F 82% 30.18 in 10.0 mi Calm Calm - N/A   Overcast
8:35 AM 34.2 °F 29.3 °F 82% 30.18 in 10.0 mi Calm Calm - N/A   Overcast
8:55 AM 35.1 °F 29.3 °F 80% 30.19 in 10.0 mi Calm Calm - N/A   Overcast
9:15 AM 36.0 °F 29.3 °F 77% 30.18 in 10.0 mi Calm Calm - N/A   Overcast
9:35 AM 36.7 °F 30.4 °F 78% 30.17 in 10.0 mi Calm Calm - N/A   Overcast
9:55 AM 37.8 °F 30.4 °F 75% 30.16 in 10.0 mi Calm Calm - N/A   Overcast
10:15 AM 38.3 °F 30.9 °F 75% 30.15 in 10.0 mi Calm Calm - N/A   Overcast
10:35 AM 39.2 °F 30.9 °F 72% 30.15 in 10.0 mi Calm Calm - N/A   Overcast
10:55 AM 39.7 °F 30.9 °F 71% 30.14 in 10.0 mi Calm Calm - N/A   Overcast
11:15 AM 40.3 °F 30.0 °F 67% 30.14 in 10.0 mi Calm Calm - N/A   Overcast
11:35 AM 41.9 °F 31.3 °F 66% 30.13 in 10.0 mi Calm Calm - N/A Rain Light Rain
11:55 AM 41.9 °F 33.3 °F 71% 30.13 in 10.0 mi Calm Calm - N/A Rain Light Rain
12:15 PM 41.9 °F 33.8 °F 73% 30.12 in 10.0 mi Calm Calm - N/A Rain Light Rain
12:35 PM 42.1 °F 35.1 °F 76% 30.12 in 10.0 mi Calm Calm - N/A   Light Drizzle
12:55 PM 42.6 °F 35.8 °F 77% 30.10 in 10.0 mi Calm Calm - N/A Rain Light Rain
1:15 PM 42.4 °F 36.5 °F 79% 30.10 in 7.0 mi Calm Calm - 0.01 in Rain Light Rain
1:35 PM 42.4 °F 37.6 °F 83% 30.09 in 10.0 mi Calm Calm - 0.02 in Rain Light Rain
1:55 PM 42.1 °F 37.2 °F 83% 30.08 in 10.0 mi Calm Calm - 0.03 in Rain Rain
2:15 PM 42.1 °F 37.6 °F 84% 30.08 in 10.0 mi Calm Calm - N/A Rain Light Rain
2:35 PM 41.9 °F 37.8 °F 85% 30.08 in 7.0 mi Calm Calm - 0.02 in Rain Rain
2:55 PM 41.9 °F 38.5 °F 88% 30.07 in 5.0 mi Calm Calm - 0.04 in Rain Rain
3:15 PM 41.4 °F 39.2 °F 92% 30.07 in 5.0 mi Calm Calm - 0.02 in Rain Rain
3:35 PM 41.5 °F 39.6 °F 93% 30.06 in 4.0 mi Calm Calm - 0.05 in Rain Rain
3:55 PM 41.5 °F 39.4 °F 92% 30.04 in 5.0 mi Calm Calm - 0.08 in Rain Rain
4:15 PM 41.7 °F 38.7 °F 89% 30.04 in 5.0 mi Calm Calm - 0.02 in Rain Light Rain
4:35 PM 41.5 °F 39.2 °F 91% 30.03 in 7.0 mi Calm Calm - 0.03 in Rain Light Rain
4:55 PM 41.9 °F 40.3 °F 94% 30.02 in 5.0 mi Calm Calm - 0.03 in Rain Light Rain
5:15 PM 41.9 °F 41.0 °F 97% 30.01 in 5.0 mi Calm Calm - 0.01 in   Drizzle
5:35 PM 41.9 °F 41.0 °F 97% 30.01 in 4.0 mi Calm Calm - 0.02 in Rain Light Rain
5:55 PM 42.1 °F 41.4 °F 97% 30.01 in 4.0 mi Calm Calm - 0.03 in   Drizzle
6:15 PM 42.1 °F 41.4 °F 97% 30.01 in 4.0 mi Calm Calm - N/A   Drizzle
6:35 PM 41.9 °F 41.0 °F 97% 30.01 in 2.5 mi Calm Calm - N/A Rain Rain
6:55 PM 41.4 °F 40.6 °F 97% 30.01 in 2.0 mi Calm Calm - 0.01 in Rain Rain
7:15 PM 41.4 °F 40.6 °F 97% 30.01 in 2.0 mi Calm Calm - 0.01 in Rain Light Rain
7:35 PM 41.4 °F 40.6 °F 97% 30.01 in 1.8 mi Calm Calm - 0.01 in   Drizzle
7:55 PM 41.2 °F 40.5 °F 97% 30.01 in 1.2 mi Calm Calm - 0.02 in Rain Rain
8:15 PM 41.2 °F 40.5 °F 97% 30.00 in 1.5 mi Calm Calm - N/A   Light Drizzle
8:35 PM 41.2 °F 40.3 °F 97% 30.00 in 1.0 mi Calm Calm - N/A   Light Drizzle
8:55 PM 41.2 °F 40.3 °F 97% 30.00 in 1.2 mi Calm Calm - N/A   Light Drizzle
9:15 PM 41.0 °F 40.1 °F 97% 29.99 in 1.5 mi Calm Calm - 0.01 in   Overcast
9:35 PM 40.6 °F 39.7 °F 97% 29.99 in 0.8 mi Calm Calm - 0.01 in   Overcast
9:55 PM 40.3 °F 39.4 °F 97% 29.99 in 0.5 mi Calm Calm - 0.01 in Fog Fog
10:15 PM 40.3 °F 39.4 °F 97% 29.98 in 0.8 mi Calm Calm - N/A   Overcast
10:35 PM 40.1 °F 39.2 °F 97% 29.97 in 0.8 mi Calm Calm - N/A   Overcast
10:55 PM 40.3 °F 39.4 °F 97% 29.97 in 0.5 mi Calm Calm - N/A Fog Fog
11:15 PM 40.1 °F 39.2 °F 97% 29.96 in 0.5 mi Calm Calm - N/A Fog Fog
11:35 PM 40.3 °F 39.4 °F 97% 29.95 in 0.2 mi Calm Calm - N/A Fog Fog
11:55 PM 40.3 °F 39.2 °F 96% 29.95 in 0.2 mi Calm Calm - N/A Fog Fog